TimeEST,TemperatureF,Dew PointF,Humidity,Sea Level PressureIn,VisibilityMPH,Wind Direction,Wind SpeedMPH,Gust SpeedMPH,PrecipitationIn,Events,Conditions,WindDirDegrees,DateUTC
12:15 AM,31.1,30.0,96,30.19,10.0,Calm,Calm,-,N/A,,Scattered Clouds,0,2013-01-07 05:15:00
12:35 AM,30.0,28.9,96,30.19,10.0,Calm,Calm,-,N/A,,Clear,0,2013-01-07 05:35:00
12:55 AM,30.7,29.5,95,30.20,10.0,Calm,Calm,-,N/A,,Mostly Cloudy,0,2013-01-07 05:55:00
1:15 AM,30.6,29.5,96,30.20,10.0,Calm,Calm,-,N/A,,Mostly Cloudy,0,2013-01-07 06:15:00
1:35 AM,30.6,29.3,95,30.20,7.0,Calm,Calm,-,N/A,,Mostly Cloudy,0,2013-01-07 06:35:00
1:55 AM,30.4,29.3,96,30.21,10.0,Calm,Calm,-,N/A,,Mostly Cloudy,0,2013-01-07 06:55:00
2:15 AM,30.6,29.3,95,30.21,7.0,Calm,Calm,-,N/A,,Scattered Clouds,0,2013-01-07 07:15:00
2:35 AM,29.7,28.6,96,30.21,7.0,Calm,Calm,-,N/A,,Clear,0,2013-01-07 07:35:00
3:15 AM,29.5,28.4,96,30.22,10.0,Calm,Calm,-,N/A,,Clear,0,2013-01-07 08:15:00
3:35 AM,29.7,28.8,96,30.22,10.0,Calm,Calm,-,N/A,,Clear,0,2013-01-07 08:35:00
3:55 AM,28.0,27.0,96,30.22,10.0,Calm,Calm,-,N/A,,Clear,0,2013-01-07 08:55:00
4:15 AM,28.2,27.1,96,30.22,10.0,Calm,Calm,-,N/A,,Clear,0,2013-01-07 09:15:00
4:35 AM,28.9,27.9,96,30.24,10.0,Calm,Calm,-,N/A,,Clear,0,2013-01-07 09:35:00
4:55 AM,28.9,27.9,96,30.24,10.0,Calm,Calm,-,N/A,,Clear,0,2013-01-07 09:55:00
5:15 AM,28.0,27.0,96,30.25,7.0,Calm,Calm,-,N/A,,Clear,0,2013-01-07 10:15:00
5:35 AM,27.5,26.6,96,30.26,10.0,Calm,Calm,-,N/A,,Clear,0,2013-01-07 10:35:00
5:55 AM,27.3,26.2,96,30.27,10.0,Calm,Calm,-,N/A,,Clear,0,2013-01-07 10:55:00
6:15 AM,26.8,25.7,96,30.27,10.0,Calm,Calm,-,N/A,,Clear,0,2013-01-07 11:15:00
6:35 AM,26.8,25.7,96,30.30,10.0,Calm,Calm,-,N/A,,Clear,0,2013-01-07 11:35:00
6:55 AM,26.6,25.5,96,30.31,10.0,Calm,Calm,-,N/A,,Clear,0,2013-01-07 11:55:00
7:15 AM,25.5,24.4,96,30.33,10.0,Calm,Calm,-,N/A,,Clear,0,2013-01-07 12:15:00
7:35 AM,25.9,24.8,96,30.34,10.0,Calm,Calm,-,N/A,,Clear,0,2013-01-07 12:35:00
7:55 AM,26.2,25.0,95,30.35,10.0,Calm,Calm,-,N/A,,Clear,0,2013-01-07 12:55:00
8:15 AM,27.0,25.5,94,30.36,10.0,Calm,Calm,-,N/A,,Clear,0,2013-01-07 13:15:00
8:35 AM,28.9,27.5,94,30.37,10.0,Calm,Calm,-,N/A,,Clear,0,2013-01-07 13:35:00
8:55 AM,32.0,30.9,96,30.38,10.0,Calm,Calm,-,N/A,,Clear,0,2013-01-07 13:55:00
9:15 AM,34.7,33.3,94,30.39,10.0,Calm,Calm,-,N/A,,Clear,0,2013-01-07 14:15:00
9:35 AM,40.1,35.2,83,30.40,10.0,Calm,Calm,-,N/A,,Clear,0,2013-01-07 14:35:00
9:55 AM,42.4,34.9,75,30.41,10.0,Calm,Calm,-,N/A,,Clear,0,2013-01-07 14:55:00
10:35 AM,46.0,33.6,62,30.41,10.0,ENE,4.6,-,N/A,,Clear,60,2013-01-07 15:35:00
11:15 AM,49.3,31.1,50,30.41,10.0,NNE,10.4,16.1,N/A,,Clear,20,2013-01-07 16:15:00
11:35 AM,50.0,31.1,48,30.41,10.0,NE,8.1,-,N/A,,Clear,40,2013-01-07 16:35:00
11:55 AM,50.4,30.6,47,30.40,10.0,North,10.4,-,N/A,,Clear,10,2013-01-07 16:55:00
12:15 PM,51.3,29.7,44,30.39,10.0,NE,8.1,-,N/A,,Clear,50,2013-01-07 17:15:00
12:55 PM,51.8,29.5,42,30.38,10.0,North,6.9,-,N/A,,Clear,360,2013-01-07 17:55:00
1:15 PM,51.8,29.7,43,30.38,10.0,North,4.6,-,N/A,,Clear,10,2013-01-07 18:15:00
1:35 PM,51.8,29.5,42,30.38,10.0,East,5.8,-,N/A,,Clear,100,2013-01-07 18:35:00
1:55 PM,52.0,29.7,42,30.37,10.0,North,6.9,-,N/A,,Clear,350,2013-01-07 18:55:00
2:15 PM,52.2,29.5,42,30.37,10.0,North,4.6,-,N/A,,Clear,10,2013-01-07 19:15:00
2:35 PM,53.4,29.8,40,30.37,10.0,ENE,4.6,-,N/A,,Clear,70,2013-01-07 19:35:00
2:55 PM,53.1,29.8,41,30.38,10.0,East,3.5,-,N/A,,Clear,100,2013-01-07 19:55:00
3:15 PM,53.2,28.8,39,30.38,10.0,ESE,3.5,-,N/A,,Clear,120,2013-01-07 20:15:00
3:35 PM,52.7,28.6,40,30.38,10.0,Calm,Calm,-,N/A,,Clear,0,2013-01-07 20:35:00
3:55 PM,52.7,29.5,41,30.39,10.0,NNE,3.5,-,N/A,,Clear,20,2013-01-07 20:55:00
4:15 PM,52.5,28.8,40,30.39,10.0,Calm,Calm,-,N/A,,Clear,0,2013-01-07 21:15:00
4:35 PM,51.8,29.3,42,30.40,10.0,Calm,Calm,-,N/A,,Clear,0,2013-01-07 21:35:00
4:55 PM,50.7,31.3,47,30.40,10.0,Calm,Calm,-,N/A,,Clear,0,2013-01-07 21:55:00
5:15 PM,47.5,31.8,55,30.40,10.0,Calm,Calm,-,N/A,,Clear,0,2013-01-07 22:15:00
5:35 PM,44.2,32.7,64,30.41,10.0,Calm,Calm,-,N/A,,Clear,0,2013-01-07 22:35:00
5:55 PM,41.9,33.1,71,30.41,10.0,Calm,Calm,-,N/A,,Clear,0,2013-01-07 22:55:00
6:15 PM,39.9,33.1,77,30.41,10.0,Calm,Calm,-,N/A,,Clear,0,2013-01-07 23:15:00
6:35 PM,38.3,33.1,81,30.42,10.0,Calm,Calm,-,N/A,,Clear,0,2013-01-07 23:35:00
6:55 PM,38.3,32.7,80,30.42,10.0,Calm,Calm,-,N/A,,Clear,0,2013-01-07 23:55:00
7:15 PM,36.3,32.4,86,30.43,10.0,Calm,Calm,-,N/A,,Clear,0,2013-01-08 00:15:00
7:35 PM,34.2,31.1,89,30.43,10.0,Calm,Calm,-,N/A,,Clear,0,2013-01-08 00:35:00
7:55 PM,33.1,30.9,92,30.43,10.0,Calm,Calm,-,N/A,,Clear,0,2013-01-08 00:55:00
8:15 PM,33.1,31.3,93,30.43,10.0,Calm,Calm,-,N/A,,Clear,0,2013-01-08 01:15:00
8:35 PM,31.8,29.3,90,30.44,10.0,Calm,Calm,-,N/A,,Clear,0,2013-01-08 01:35:00
8:55 PM,31.1,29.1,92,30.44,7.0,Calm,Calm,-,N/A,,Clear,0,2013-01-08 01:55:00
9:15 PM,30.9,28.9,92,30.43,10.0,Calm,Calm,-,N/A,,Clear,0,2013-01-08 02:15:00
9:55 PM,29.5,27.7,93,30.44,10.0,Calm,Calm,-,N/A,,Clear,0,2013-01-08 02:55:00
10:15 PM,29.8,28.0,93,30.44,10.0,Calm,Calm,-,N/A,,Clear,0,2013-01-08 03:15:00
10:35 PM,29.3,27.9,94,30.43,10.0,Calm,Calm,-,N/A,,Clear,0,2013-01-08 03:35:00
10:55 PM,28.4,26.8,94,30.43,7.0,Calm,Calm,-,N/A,,Clear,0,2013-01-08 03:55:00
11:35 PM,28.4,27.1,95,30.42,5.0,Calm,Calm,-,N/A,,Clear,0,2013-01-08 04:35:00
11:55 PM,28.4,27.1,95,30.42,7.0,Calm,Calm,-,N/A,,Clear,0,2013-01-08 04:55:00